Theta_e
289 289 288 287 287 287 286 287 287 287 287 287 287 286 287 286 286 285 285 285 285 284 284 283 283 282 282 281 281 280 280 279 279 278 278 278 278 279 278 278 277 277 277 277 276 277 277 276 276 276 276 276 275 275 276 275 275 275 275 276 276 277
289 289 288 287 287 286 286 286 286 286 287 286 286 286 286 285 285 285 284 284 284 284 283 282 282 282 281 280 280 279 279 279 278 277 277 278 278 277 277 277 276 276 276 276 276 276 276 275 275 275 275 275 275 275 275 275 274 274 274 274 275 276
288 287 287 287 285 284 285 285 286 286 286 286 286 286 285 285 285 285 285 284 284 283 282 282 281 280 280 279 279 279 278 278 278 277 277 277 277 276 276 276 276 276 276 275 276 275 274 274 274 274 274 274 274 274 273 273 273 273 274 274 274 274
287 286 285 285 285 285 285 285 284 284 285 286 286 286 285 285 284 285 284 284 283 283 282 281 280 280 279 278 278 277 277 277 277 276 276 276 276 276 275 275 275 275 275 274 274 274 274 274 274 273 273 273 273 273 274 273 272 272 272 272 272 272
288 287 286 286 286 286 285 284 285 285 285 285 285 286 285 285 285 285 284 283 283 282 281 280 279 279 278 277 277 277 277 277 276 276 276 275 275 275 275 275 275 274 274 274 274 274 273 273 273 273 273 273 272 272 271 272 271 271 271 271 271 271
286 286 285 286 285 285 285 285 285 285 285 285 285 285 285 284 284 284 283 283 282 282 281 280 279 278 278 277 277 276 276 276 276 276 276 275 275 275 275 275 274 274 274 274 273 273 273 273 273 272 272 272 271 271 271 270 270 270 270 270 270 270
286 287 286 286 286 285 284 284 284 284 285 285 285 285 285 284 284 283 283 282 281 281 280 279 278 277 277 277 277 276 276 276 276 276 275 275 275 275 274 274 274 274 274 273 273 273 272 272 272 272 271 271 270 270 270 270 270 270 270 269 269 271
288 286 285 285 285 285 285 284 284 284 284 284 284 284 283 283 283 283 282 281 281 280 279 278 278 277 277 277 276 276 276 276 275 275 275 275 274 274 274 274 274 274 273 273 272 272 271 271 270 270 269 269 269 269 269 269 269 269 269 269 269 269
285 285 285 286 285 284 285 284 284 284 283 283 283 284 283 283 282 282 281 281 280 279 279 278 277 277 277 277 276 276 276 276 275 275 274 275 274 274 273 273 273 272 272 271 271 271 271 270 270 269 269 269 269 269 269 269 269 269 269 269 269 269
285 285 285 285 285 285 284 284 284 284 283 283 283 283 283 283 282 281 280 280 279 279 278 278 277 277 277 277 276 276 276 275 275 275 274 274 274 273 273 272 272 271 271 271 271 271 271 270 270 269 269 269 269 268 268 268 268 269 269 269 270 270
286 286 286 285 285 284 284 284 283 283 283 283 283 283 282 282 281 280 280 279 279 279 278 278 277 277 277 276 276 275 275 275 275 275 275 274 273 273 272 272 272 271 271 271 271 271 271 270 270 270 269 269 269 268 268 268 269 269 270 270 271 271
289 288 287 286 285 284 284 284 283 283 283 283 283 283 282 281 281 280 279 279 279 278 278 277 277 277 276 276 275 275 275 275 275 274 273 273 272 271 271 271 271 270 270 270 270 270 270 270 270 271 273 273 269 269 269 270 270 270 271 271 271 272
290 289 287 286 285 285 285 285 284 284 283 283 282 282 282 281 280 280 279 279 278 278 277 277 276 276 276 275 275 274 274 274 273 272 271 270 270 269 270 270 269 269 269 269 269 269 270 270 270 273 274 275 276 274 272 272 272 272 272 272 272 272
290 290 289 288 287 286 285 285 284 283 283 283 282 282 281 280 280 279 279 278 278 277 277 276 276 275 275 274 274 273 272 271 271 270 269 269 268 269 269 268 268 269 269 269 269 269 270 270 272 274 275 276 276 276 274 273 273 273 273 273 272 272
290 290 290 290 289 287 286 286 284 283 283 283 282 281 280 280 279 279 278 278 277 277 276 276 275 274 274 274 273 272 270 270 270 269 268 268 268 268 267 268 268 268 269 269 269 269 269 269 272 274 275 275 276 276 276 274 274 273 273 273 273 272
290 290 289 290 290 290 289 287 286 285 284 283 281 280 280 279 279 278 278 277 277 276 276 275 274 273 273 272 271 270 269 268 268 268 268 268 268 267 267 268 268 268 269 269 269 269 269 269 271 273 274 275 276 276 276 274 274 274 273 273 272 271
291 290 289 288 289 288 285 284 284 282 282 281 280 280 279 279 278 277 277 276 276 276 275 275 274 272 271 270 269 268 267 267 267 267 267 267 267 267 267 267 267 268 268 269 269 268 268 268 271 273 274 275 276 276 276 274 274 273 272 272 272 272
291 291 291 288 286 285 285 285 283 283 282 280 280 279 278 278 277 277 277 276 276 275 275 274 273 270 269 268 267 267 267 267 267 267 267 267 267 268 268 268 268 268 268 268 267 267 267 267 271 272 274 274 275 276 274 273 272 272 271 271 272 272
290 290 287 284 285 284 285 284 283 282 280 279 279 278 278 277 277 277 276 276 275 275 274 274 271 269 268 267 267 267 266 266 266 267 267 267 267 267 267 267 268 268 267 267 267 266 266 266 269 271 273 274 275 275 273 272 272 272 271 271 272 272
289 287 287 285 284 285 284 283 282 281 279 279 278 278 277 277 277 277 276 276 275 274 273 273 270 269 268 267 266 266 267 267 267 266 267 267 267 267 267 267 267 267 267 267 266 267 266 266 268 271 272 274 274 274 273 272 272 271 271 271 272 272
288 286 284 284 284 283 283 282 281 280 279 278 277 277 277 276 277 276 276 275 274 273 272 271 270 269 268 267 267 267 266 266 266 267 267 267 267 267 267 267 266 266 267 267 267 268 267 266 268 271 272 273 274 274 273 272 271 271 271 271 272 273
285 283 284 284 284 283 282 281 281 280 278 277 277 276 276 277 277 276 275 274 273 272 271 270 269 268 267 267 267 267 267 267 266 266 266 266 266 266 266 266 266 265 266 266 266 266 267 267 267 268 272 273 274 275 273 272 271 270 271 272 272 272
288 287 286 286 283 282 281 281 280 279 278 277 276 276 277 277 276 275 274 273 272 271 270 269 269 268 267 267 266 267 266 266 266 265 265 265 265 265 266 266 265 265 265 265 266 266 266 267 267 268 272 273 274 275 274 272 272 272 272 272 273 273
285 284 283 283 282 281 281 280 280 279 277 276 276 277 276 276 275 274 272 271 270 269 269 268 268 268 266 266 266 265 265 266 266 265 265 265 265 265 264 264 264 264 264 265 266 267 267 269 271 269 271 272 273 274 275 273 273 274 273 272 272 272
284 284 284 282 281 281 281 280 279 278 277 276 276 276 275 274 273 272 271 270 269 268 267 267 266 266 265 265 265 265 265 265 264 264 264 264 264 264 263 263 263 264 265 266 266 267 268 269 269 271 270 272 273 274 275 276 275 276 274 272 271 270
283 283 282 279 279 279 280 280 279 278 276 276 275 274 273 272 272 270 269 269 269 267 266 265 264 264 264 264 265 264 264 263 263 263 263 264 263 263 262 263 264 265 265 265 266 267 268 268 268 270 271 271 273 274 275 276 276 276 274 273 271 270
282 281 279 277 276 276 277 278 279 277 276 276 274 274 272 271 270 269 268 268 267 266 265 264 264 263 264 264 264 263 262 262 262 262 263 263 263 263 263 264 265 264 264 265 265 266 267 268 268 268 270 272 273 274 275 275 275 275 275 271 270 270
279 279 278 275 275 276 277 277 278 277 277 275 274 273 272 270 269 268 267 266 266 264 263 263 263 263 263 264 264 264 263 262 262 263 262 263 264 264 264 264 264 264 265 265 266 266 266 267 267 268 269 270 271 272 273 274 274 273 273 272 270 273
279 279 279 280 276 276 276 277 277 278 275 273 273 273 271 269 269 268 266 265 264 263 262 262 262 262 263 263 264 264 263 263 264 263 263 263 264 264 264 264 264 264 265 264 265 266 266 266 267 268 269 269 270 271 272 272 271 272 272 270 270 270
280 280 279 279 278 276 276 276 276 276 274 273 273 271 270 269 268 267 265 263 262 262 262 262 262 262 262 263 263 263 263 264 265 264 263 264 264 264 264 264 264 265 265 265 265 265 265 266 266 267 268 269 271 271 271 271 271 270 269 269 270 267
281 281 280 281 280 277 275 276 276 274 273 273 271 270 269 268 267 265 264 263 262 262 262 262 262 262 262 263 263 264 264 264 265 265 265 266 266 265 265 264 265 266 266 266 265 265 265 265 266 267 271 272 273 272 271 270 270 269 269 270 271 265
282 282 281 282 280 276 275 275 275 273 272 271 271 270 269 267 266 264 263 262 262 262 262 261 261 262 262 263 263 263 263 266 268 267 265 265 269 270 270 269 267 267 267 266 267 267 265 266 267 272 273 272 272 273 273 272 272 272 271 271 269 265
281 281 281 281 278 276 276 275 275 271 270 270 270 270 269 267 265 264 263 262 262 263 262 262 261 262 262 263 263 263 263 264 267 270 270 269 270 271 272 271 271 272 271 268 266 268 271 271 272 272 272 272 272 272 272 271 271 271 271 270 265 259
282 280 280 281 278 276 275 273 273 271 270 269 269 269 268 267 266 264 263 262 263 263 262 262 262 262 262 262 263 262 263 263 264 266 270 271 272 272 272 272 272 272 272 272 269 268 267 270 271 271 271 271 271 271 271 270 270 270 270 268 266 257
285 284 282 281 279 276 273 272 272 270 269 269 269 269 268 267 266 264 263 263 263 262 262 262 262 262 262 262 262 262 263 263 263 263 265 268 272 272 272 272 272 272 271 272 272 271 270 270 271 271 271 271 270 270 269 269 269 269 269 266 259 256
285 285 283 282 279 277 274 273 272 270 269 269 268 268 268 267 266 265 264 263 263 263 262 262 262 262 262 263 263 263 263 263 264 264 265 265 265 268 270 271 271 271 271 271 271 271 271 271 271 270 270 270 270 269 268 266 264 267 267 264 256 256
285 284 282 280 278 275 274 274 273 271 270 269 268 268 267 267 266 265 264 263 263 263 262 262 263 262 263 263 263 263 263 263 264 264 264 264 263 264 263 262 264 268 270 267 269 270 271 270 270 270 270 269 269 267 266 263 257 256 256 257 256 256
283 282 281 279 276 274 273 273 272 269 268 268 268 268 267 267 266 265 264 263 263 263 263 263 263 263 263 263 263 264 264 263 263 263 263 263 263 263 260 259 259 259 266 269 268 270 270 270 270 269 269 268 267 266 264 255 254 253 254 254 254 254
Wind_Speed
12 13 14 11 10 10 11 11 12 12 13 14 15 19 21 19 16 14 12 13 12 12 14 15 13 12 11 10 10 10 11 11 10 10 9 8 8 8 8 7 7 6 5 5 4 4 5 4 4 3 3 3 3 3 4 3 3 4 5 4 5 6
14 14 14 14 14 13 12 12 11 13 14 13 14 13 10 11 14 15 16 16 13 12 11 12 11 11 12 12 13 11 12 11 11 10 9 10 8 7 7 7 6 6 6 5 6 5 5 4 3 3 3 3 3 3 4 3 3 3 4 4 4 5
9 9 9 8 7 6 7 9 13 13 11 14 15 17 17 17 17 15 15 13 15 14 16 15 13 13 11 11 12 12 11 10 10 10 9 8 8 8 8 7 7 6 7 6 5 5 4 4 3 3 3 3 3 3 3 3 3 4 5 5 7 6
9 6 5 5 7 9 11 11 8 9 12 13 13 13 14 16 15 17 16 15 14 16 15 14 11 12 11 12 12 12 11 11 10 10 9 9 8 8 8 7 6 6 6 5 5 5 4 4 4 3 3 3 3 3 3 4 3 4 5 5 7 6
11 12 12 12 12 10 10 10 13 15 14 13 13 16 17 17 17 15 13 14 15 16 14 13 13 13 13 13 12 12 11 11 10 10 11 9 8 7 7 7 7 6 6 5 5 4 4 4 4 3 3 3 3 4 3 3 3 4 5 6 7 7
6 6 9 12 13 13 15 14 11 11 12 14 14 17 18 15 14 14 14 14 14 14 14 15 13 14 14 14 12 13 11 11 10 9 9 9 8 8 7 6 6 6 5 5 5 4 4 4 3 3 3 3 3 3 4 3 3 4 5 6 7 6
9 13 13 13 13 12 11 12 14 14 15 14 16 16 14 12 12 13 15 14 15 14 15 15 14 15 14 14 12 13 12 11 10 9 9 9 8 7 7 5 5 5 5 6 5 4 4 4 4 3 3 2 2 3 3 4 4 4 5 6 7 7
11 9 9 10 10 12 12 12 11 12 11 13 12 11 11 13 12 13 13 13 15 15 16 15 14 16 16 14 13 13 12 11 10 9 7 8 8 6 6 6 5 6 5 4 4 4 3 3 3 3 3 3 3 3 3 4 4 5 6 6 7 7
8 11 11 12 11 10 11 13 14 12 12 12 11 11 11 11 10 11 12 12 14 13 15 15 16 14 14 13 12 11 10 10 10 10 9 8 8 8 7 5 5 4 5 3 3 3 3 3 3 3 3 3 3 4 4 4 5 6 6 6 7 8
9 9 11 12 12 12 11 12 13 13 14 14 12 10 10 9 11 12 12 12 13 14 15 14 12 12 11 10 10 11 10 10 10 9 8 8 8 8 7 6 6 3 3 3 2 2 2 3 3 3 4 4 4 4 4 4 5 6 6 7 9 10
9 11 13 13 12 12 13 12 11 11 10 10 11 12 13 11 12 12 12 13 14 14 13 11 10 10 10 10 10 11 10 10 10 10 9 8 7 6 6 6 5 5 3 3 3 3 3 3 4 4 4 4 5 4 4 5 6 7 9 10 11 11
12 14 14 13 13 14 13 12 13 14 15 14 13 13 11 12 14 15 14 14 13 11 11 11 10 11 11 11 11 11 11 10 10 10 9 8 8 7 6 6 4 4 4 4 5 5 5 5 5 7 13 10 6 4 4 5 7 9 9 10 12 13
15 14 12 13 13 15 15 15 14 13 12 11 12 13 13 13 13 13 13 13 11 11 11 12 12 12 12 11 11 10 11 11 10 10 10 9 8 7 7 6 6 5 5 5 5 6 6 6 5 11 12 12 12 8 6 7 7 8 10 10 10 10
14 14 14 14 15 15 13 12 11 11 14 13 13 12 11 12 12 13 13 12 11 13 14 13 12 13 12 12 12 12 11 11 11 10 11 10 9 6 5 6 6 6 6 5 6 6 6 5 8 12 12 12 12 11 7 7 7 7 8 10 10 12
13 14 14 13 13 13 14 15 12 13 14 14 12 11 13 13 13 13 12 12 13 14 14 13 14 14 13 13 13 12 12 12 12 12 10 8 6 6 6 6 7 6 6 6 6 6 6 6 9 12 12 12 12 13 11 7 7 8 7 9 11 12
9 10 11 12 14 15 15 14 16 15 11 11 11 14 13 14 13 13 13 12 13 14 14 14 14 14 13 13 13 13 14 14 11 7 7 7 7 7 7 6 6 5 6 6 6 5 5 6 8 12 12 11 12 13 12 7 8 7 6 9 11 11
10 9 9 9 11 9 7 9 9 8 10 12 13 13 14 12 13 12 13 13 13 13 13 14 14 14 13 13 13 13 14 14 10 10 9 9 9 9 8 8 8 7 6 5 5 4 5 5 10 11 12 12 12 13 12 6 5 7 8 9 12 12
11 11 12 8 6 8 10 12 11 12 12 12 14 13 13 13 13 13 13 14 14 15 15 16 15 14 14 13 13 13 11 9 9 11 9 8 7 7 6 6 7 7 7 6 4 4 6 6 11 12 11 12 11 13 7 5 7 7 8 9 11 11
9 11 7 6 9 10 11 10 12 12 12 12 12 14 13 14 14 15 16 15 15 16 16 16 16 15 14 15 13 8 9 11 9 8 8 9 8 8 8 8 7 7 6 6 6 6 7 6 9 11 11 10 11 9 5 6 6 7 8 9 10 10
7 6 9 9 10 11 9 11 13 13 13 12 12 14 14 15 16 16 16 17 16 17 16 17 18 18 17 16 14 12 11 9 8 9 10 10 10 9 8 7 5 5 5 7 7 7 6 5 8 11 11 10 11 9 6 5 6 8 8 9 9 10
8 7 6 7 8 7 9 12 12 12 12 12 13 13 15 16 16 16 18 17 16 16 16 16 17 18 19 14 12 10 12 11 10 9 7 6 6 7 7 6 6 6 5 6 6 9 9 6 8 12 11 10 9 8 5 6 6 8 8 9 10 9
5 5 7 10 12 9 11 11 12 13 13 13 12 14 16 18 18 14 12 13 14 14 14 15 16 15 16 17 14 8 9 9 9 9 9 7 6 6 6 5 5 5 4 4 4 4 6 7 6 8 11 9 9 10 6 4 6 8 9 10 9 9
11 12 14 11 9 10 10 11 12 12 11 12 13 17 18 13 11 13 14 13 14 14 15 13 15 17 14 16 16 9 9 8 10 10 9 10 8 7 7 7 5 4 4 4 5 5 7 8 7 8 10 8 8 10 9 5 7 8 9 8 8 8
6 5 3 4 10 10 11 12 13 11 11 12 17 18 8 11 12 13 14 15 14 14 13 14 12 14 14 13 15 12 9 8 8 9 9 7 9 10 7 6 5 4 4 5 6 6 6 8 10 4 5 7 9 9 11 7 6 9 8 8 8 9
4 7 6 4 7 8 10 12 13 11 11 15 14 8 10 11 12 13 14 14 15 14 14 14 16 13 12 14 14 16 12 9 9 9 8 11 8 9 8 7 6 6 5 4 3 4 6 5 3 6 4 7 9 9 11 13 11 15 9 7 8 9
3 5 7 4 1 2 5 11 12 10 12 14 7 10 10 12 13 14 15 15 16 16 14 14 14 12 13 14 12 10 11 10 7 7 6 6 7 7 7 6 6 6 5 4 4 4 3 2 2 5 7 6 8 10 11 12 13 14 8 8 7 9
3 1 1 1 2 3 5 5 10 10 14 9 11 13 14 14 15 16 16 16 16 16 15 14 14 14 14 13 15 13 8 10 9 8 6 7 8 7 7 7 7 6 5 5 5 3 3 3 2 3 6 8 8 9 10 12 13 13 14 8 5 9
4 3 5 4 5 6 7 10 10 14 14 8 11 12 14 16 16 16 17 15 15 16 18 19 14 14 14 14 6 7 10 12 10 8 9 7 7 8 8 8 7 6 6 5 4 4 3 2 2 3 4 6 9 8 9 11 12 12 12 12 11 16
6 8 9 10 9 10 10 12 12 10 7 13 12 13 14 15 16 16 15 16 15 15 10 12 11 10 9 9 8 6 6 8 8 9 9 8 9 8 8 7 7 7 7 6 5 5 4 3 2 2 4 5 5 4 5 5 6 8 8 7 8 5
9 10 10 12 11 11 12 12 13 10 9 11 13 14 15 16 17 17 17 17 15 15 14 8 14 14 10 8 9 9 8 6 8 9 10 11 11 10 9 8 9 8 8 7 6 5 4 3 2 4 5 5 4 3 4 4 3 2 1 5 3 4
11 12 13 14 11 11 12 13 11 9 12 13 14 16 17 16 14 13 15 15 14 14 14 14 9 8 10 10 10 7 8 9 11 9 7 4 5 7 9 9 8 7 6 6 5 5 4 4 5 6 8 4 4 4 2 2 2 1 2 6 10 6
12 12 14 14 10 11 13 14 11 9 11 13 14 16 18 16 15 15 16 15 15 15 15 13 10 9 10 12 13 11 8 5 7 6 7 7 11 13 12 10 7 7 6 6 4 4 4 4 5 8 3 3 4 5 6 7 6 7 6 9 11 7
12 12 13 12 8 11 13 12 11 11 13 15 16 18 18 18 16 15 15 15 15 17 16 9 10 9 15 15 17 14 12 10 8 11 13 11 13 14 15 13 13 14 12 8 3 4 10 8 6 1 1 3 5 5 6 6 7 8 9 11 7 5
11 13 16 14 11 13 12 12 12 14 14 15 17 17 18 20 19 18 17 17 15 16 16 11 11 12 11 9 10 15 14 13 11 9 12 15 15 14 13 13 12 11 11 12 10 6 2 4 4 2 3 4 5 6 7 7 8 10 11 13 10 3
13 13 13 12 11 11 11 12 13 13 14 16 17 18 19 20 19 19 17 16 16 16 15 14 9 11 10 16 16 13 13 10 12 15 13 11 15 14 12 13 12 12 11 11 10 10 7 6 5 5 5 6 6 8 8 7 9 11 13 11 6 4
13 12 12 12 13 13 12 14 14 15 17 17 18 20 21 21 20 21 19 18 19 18 16 12 12 11 9 13 15 15 14 12 13 13 14 14 10 10 10 12 13 13 12 11 9 7 7 7 7 6 7 7 7 8 8 8 5 10 13 10 4 4
13 13 13 15 13 12 13 15 16 15 15 16 18 18 17 17 16 14 16 24 21 17 17 13 11 13 13 15 14 15 14 14 12 12 13 12 13 14 12 8 7 7 10 6 5 7 8 8 7 8 7 8 8 8 6 5 5 7 7 7 5 5
13 14 13 12 10 11 13 14 9 11 13 15 17 17 17 16 15 15 15 15 17 13 8 12 16 17 16 14 13 13 13 13 13 12 11 9 9 10 10 7 5 3 4 11 6 7 7 8 8 8 8 9 10 9 7 6 5 4 5 4 4 4
Wind_Direction
200 201 203 204 204 205 208 206 198 197 198 201 200 198 196 191 188 187 185 187 189 188 187 184 182 178 173 169 162 160 162 162 160 160 160 151 152 148 148 152 156 155 161 162 180 186 192 191 196 196 201 214 231 240 245 251 249 255 264 257 259 264
203 202 199 197 200 199 199 200 201 205 202 195 202 204 195 184 188 187 189 191 185 186 181 187 183 178 173 169 164 166 167 166 161 158 158 163 154 153 149 154 157 160 169 177 178 187 185 189 190 185 202 216 226 234 251 257 252 261 264 275 272 276
210 202 198 204 201 200 199 200 205 208 200 203 199 195 193 191 192 186 194 183 189 180 185 184 179 178 171 166 169 166 167 164 162 163 159 145 158 152 155 159 163 165 171 174 177 181 188 183 193 191 198 207 220 231 237 249 258 265 268 273 272 270
208 207 207 207 194 198 199 202 197 204 208 208 204 200 199 195 188 192 190 187 186 185 183 180 176 173 171 167 167 166 165 163 162 158 151 156 156 153 156 159 159 165 170 174 183 185 185 191 190 200 194 211 221 240 229 237 244 254 266 267 271 274
196 191 192 197 205 211 202 191 198 203 202 200 204 202 204 196 194 190 185 186 186 186 179 172 176 173 172 170 169 167 165 163 159 156 153 152 154 150 155 158 159 165 169 176 183 185 192 195 199 198 198 205 212 230 242 245 243 255 263 267 270 274
183 191 198 199 199 199 203 209 209 203 200 202 201 207 205 196 189 186 185 188 188 180 173 177 174 172 175 175 173 168 166 161 157 152 149 148 147 151 152 153 159 161 174 182 187 189 193 194 197 199 197 200 209 233 249 249 254 260 262 266 269 272
183 194 201 205 205 205 202 200 202 204 206 199 202 209 205 196 188 185 188 185 182 180 178 176 173 177 178 177 172 169 162 159 153 151 149 144 147 146 143 150 155 165 176 188 190 197 197 197 197 199 195 198 201 222 239 247 252 256 260 263 266 271
202 203 203 207 208 204 201 203 207 208 208 211 207 202 196 197 188 189 185 183 180 183 180 177 176 181 180 175 171 167 162 154 151 145 141 143 141 138 148 157 169 176 186 184 193 191 193 189 186 186 198 206 225 234 238 246 251 255 260 262 266 264
207 209 208 209 208 205 206 203 202 200 202 207 203 201 194 193 187 186 185 185 185 181 183 180 182 179 177 174 167 160 156 153 146 142 144 142 143 149 154 164 164 173 174 185 175 186 183 193 189 197 210 215 216 224 236 249 253 257 256 258 258 257
214 214 215 213 213 207 205 206 202 198 197 200 195 191 188 186 185 184 185 183 186 188 185 183 174 172 171 165 159 158 153 145 141 137 132 133 144 151 158 164 164 156 149 174 167 190 186 197 209 213 212 216 213 219 233 234 247 253 258 260 262 261
221 220 221 219 211 205 206 203 200 195 198 194 189 190 191 177 177 182 184 187 190 190 180 168 166 163 162 161 155 151 148 141 136 133 132 134 139 137 140 135 138 149 147 150 166 201 208 205 224 219 219 215 220 209 221 235 246 254 260 262 260 260
228 226 221 217 208 209 205 201 199 197 195 195 189 188 183 169 183 183 186 189 189 177 167 165 162 162 159 156 155 150 143 140 137 135 133 128 128 128 133 137 137 144 163 179 202 210 223 230 228 234 233 224 198 205 219 237 240 244 249 260 269 269
231 230 223 219 211 210 206 204 201 197 194 190 187 186 182 177 178 184 184 186 176 168 162 163 164 158 161 155 148 146 142 139 136 131 129 129 133 135 134 139 153 162 175 187 203 214 219 227 233 238 240 241 238 227 221 242 256 259 264 260 259 268
227 227 223 219 215 212 208 204 197 187 195 189 188 182 167 173 178 179 182 176 168 167 167 166 159 159 158 152 152 148 141 134 135 133 123 128 131 137 135 148 165 169 179 190 202 213 221 232 242 246 249 249 249 251 252 255 255 252 249 270 274 277
225 222 223 220 216 211 209 200 188 192 194 187 180 155 168 176 177 176 175 174 171 171 167 161 160 160 158 158 151 146 142 141 131 121 131 137 131 133 147 162 165 177 183 193 199 211 222 231 247 254 256 257 258 259 261 260 259 265 258 264 273 279
231 226 218 215 214 211 207 188 191 196 179 164 155 166 171 171 177 175 175 171 172 169 165 163 162 161 158 152 147 145 132 127 123 119 115 124 135 148 155 162 167 174 184 191 199 213 230 238 247 257 259 260 261 263 267 266 265 261 265 280 285 280
227 235 234 226 219 208 168 178 181 149 151 160 164 168 167 174 170 173 172 172 171 166 165 164 163 159 153 151 149 145 136 130 129 139 147 151 156 157 161 164 168 178 175 186 195 205 235 241 250 255 258 260 265 269 275 272 283 293 283 276 278 277
227 227 231 218 179 177 175 178 164 159 167 160 164 166 169 169 171 174 172 174 172 170 168 165 162 157 154 150 136 128 137 136 142 144 144 141 138 142 145 156 163 173 179 181 175 202 233 241 250 258 259 264 268 274 275 279 279 268 266 264 269 272
219 226 208 171 178 169 182 165 160 157 152 162 169 166 168 168 175 179 177 176 173 172 169 167 160 157 156 141 134 135 135 142 138 136 139 140 148 153 161 165 167 171 172 179 184 202 231 239 251 259 262 261 268 277 268 260 260 266 267 268 268 271
215 206 179 178 183 186 166 159 158 157 162 167 164 167 172 175 184 181 178 178 174 171 169 166 161 159 159 157 152 149 148 138 135 145 153 150 152 158 159 157 151 167 176 187 191 202 221 232 250 256 258 262 265 272 271 273 269 268 272 273 269 270
194 181 168 166 185 186 163 157 155 155 168 169 171 173 175 187 185 182 181 176 170 168 166 166 165 163 162 157 149 142 141 145 146 143 137 134 130 140 147 153 160 172 185 192 191 214 227 231 240 252 255 260 267 274 265 263 268 272 276 280 279 276
118 150 173 189 198 166 160 156 159 168 170 176 169 177 189 193 189 176 165 161 163 163 164 166 165 163 160 158 130 136 130 131 129 138 139 140 137 141 142 148 159 172 181 184 189 214 231 239 235 240 249 258 270 279 278 263 274 280 279 282 284 294
183 188 196 198 166 160 160 157 158 177 177 170 175 194 199 182 160 161 161 158 159 163 164 164 166 161 160 156 147 130 131 139 141 138 141 143 144 141 145 154 158 162 181 195 213 210 222 221 228 242 250 266 278 281 287 275 274 276 281 286 302 304
196 207 204 170 164 161 161 161 173 176 173 175 197 202 157 154 159 154 155 158 159 159 160 162 162 158 151 149 144 135 134 140 134 136 132 133 145 146 137 141 155 173 196 206 208 211 216 232 230 218 257 273 277 283 293 291 274 290 301 309 306 312
201 220 215 166 163 165 171 167 174 181 178 196 203 150 150 151 152 152 152 153 156 159 158 159 158 156 154 151 153 146 137 137 130 130 134 143 131 136 143 154 167 179 192 193 203 214 218 212 217 250 255 269 281 289 296 299 303 312 315 315 317 320
336 351 3 11 3 184 174 177 182 184 189 206 142 145 142 150 151 152 154 158 159 156 158 156 154 151 154 141 147 137 118 129 122 127 136 121 129 137 144 157 171 179 173 182 204 207 185 196 181 248 268 273 285 296 301 307 312 315 324 322 323 316
255 273 204 146 190 207 193 195 193 191 205 190 149 155 157 156 156 157 162 162 161 159 149 150 153 153 156 147 136 125 123 126 135 132 140 140 147 147 150 163 166 166 170 178 190 190 182 182 207 231 265 284 291 299 305 312 315 321 323 326 317 309
221 214 216 203 190 201 206 208 198 201 210 150 160 159 157 156 158 163 164 161 159 155 137 135 138 139 141 139 126 124 145 146 151 144 146 148 150 157 158 160 156 161 172 178 179 181 181 191 206 239 256 264 273 281 308 316 322 320 324 328 318 309
210 221 217 224 205 202 211 208 211 209 144 168 161 159 157 161 163 163 163 162 158 153 147 144 147 144 142 139 131 122 121 136 137 137 142 149 154 158 161 157 157 167 173 173 178 170 183 196 212 235 257 258 254 250 271 304 296 316 329 325 286 334
213 222 219 227 220 202 211 213 213 191 162 160 162 156 157 163 170 169 169 164 159 160 162 141 144 143 143 145 142 139 143 140 148 148 156 163 164 160 164 164 168 173 170 167 168 165 180 203 199 233 250 256 240 245 262 266 268 277 304 292 308 42
219 222 220 227 217 198 208 215 209 179 167 165 161 161 163 169 168 165 161 161 158 161 163 159 154 143 140 137 148 142 147 152 162 156 148 149 150 162 157 162 164 161 159 152 160 162 174 181 214 235 250 262 310 317 324 296 294 285 244 325 359 27
226 227 227 233 214 196 208 211 198 178 169 162 166 164 167 164 162 164 169 170 169 162 161 161 153 144 133 145 146 140 128 117 133 135 140 144 161 161 158 155 158 155 153 152 169 163 174 187 225 251 295 333 335 347 357 4 5 5 7 12 16 10
229 232 238 237 202 202 208 204 191 177 173 170 171 171 170 163 166 172 172 172 178 173 165 144 144 148 140 132 136 141 139 136 147 151 146 150 160 161 161 160 163 164 163 160 164 200 192 215 237 247 24 27 21 10 21 25 26 19 26 24 29 4
233 228 233 232 209 207 204 196 192 184 179 174 174 173 170 172 170 174 179 180 174 166 165 154 142 147 144 133 137 137 139 139 139 142 157 160 165 169 171 163 162 160 164 163 162 171 229 210 185 146 80 62 44 41 37 39 34 32 36 30 30 27
242 237 234 233 219 209 200 196 198 184 178 177 176 176 176 179 179 178 174 173 168 167 163 161 151 155 147 149 149 148 145 139 146 144 144 163 172 169 166 158 155 153 153 154 158 162 173 163 141 113 88 67 58 49 47 43 41 39 34 34 28 33
250 247 239 235 223 208 198 202 198 185 184 179 179 182 183 182 183 178 171 170 170 166 169 166 163 150 150 147 151 150 151 153 153 153 152 145 152 168 161 148 149 150 145 147 145 144 137 133 125 104 88 74 60 54 49 47 41 42 37 43 37 16
258 251 243 236 225 208 203 209 203 187 180 180 180 182 183 183 176 175 179 173 167 169 166 162 157 148 146 155 151 151 150 151 151 154 158 159 162 161 149 147 121 125 138 121 117 134 133 128 117 103 86 76 63 54 60 63 40 23 4 15 22 14
266 255 250 240 220 211 211 218 192 163 176 177 177 180 180 178 174 171 170 174 175 165 147 154 161 157 151 153 152 151 150 146 149 154 154 152 154 146 140 134 135 127 140 133 120 126 121 119 110 99 79 74 66 54 57 53 30 29 12 4 347 359